Time,TemperatureF,DewpointF,PressureIn,WindDirection,WindDirectionDegrees,WindSpeedMPH,WindSpeedGustMPH,Humidity,HourlyPrecipIn,Conditions,Clouds,dailyrainin,SoftwareType,DateUTC
2013-03-10 00:00:00,50.4,41.0,30.33,WNW,298,2.0,2.0,70,0.00,,,0.01,Wunderground v.1.15,2013-03-10 08:00:00,
2013-03-10 00:05:00,50.9,41.1,30.33,West,279,3.0,3.0,69,0.00,,,0.00,Wunderground v.1.15,2013-03-10 08:05:00,
2013-03-10 00:10:00,51.1,41.3,30.33,WNW,288,3.0,4.0,69,0.00,,,0.00,Wunderground v.1.15,2013-03-10 08:10:00,
2013-03-10 00:15:00,51.2,41.4,30.33,WNW,285,3.0,4.0,69,0.00,,,0.00,Wunderground v.1.15,2013-03-10 08:15:00,
2013-03-10 00:20:00,51.0,41.2,30.33,West,270,3.0,3.0,69,0.00,,,0.00,Wunderground v.1.15,2013-03-10 08:20:00,
2013-03-10 00:30:00,50.6,41.2,30.33,NW,310,3.0,3.0,70,0.00,,,0.00,Wunderground v.1.15,2013-03-10 08:30:00,
2013-03-10 00:35:00,50.2,40.8,30.33,West,278,3.0,4.0,70,0.00,,,0.00,Wunderground v.1.15,2013-03-10 08:35:00,
2013-03-10 00:40:00,50.1,40.7,30.32,WNW,284,2.0,2.0,70,0.00,,,0.00,Wunderground v.1.15,2013-03-10 08:40:00,
2013-03-10 00:45:00,50.0,40.6,30.32,West,277,2.0,4.0,70,0.00,,,0.00,Wunderground v.1.15,2013-03-10 08:45:00,
2013-03-10 00:50:00,50.1,40.7,30.32,WNW,293,2.0,2.0,70,0.00,,,0.00,Wunderground v.1.15,2013-03-10 08:50:00,
2013-03-10 00:55:00,49.9,40.5,30.32,WNW,289,1.0,2.0,70,0.00,,,0.00,Wunderground v.1.15,2013-03-10 08:55:00,
2013-03-10 01:05:00,49.1,40.1,30.33,WNW,290,0.0,0.0,71,0.00,,,0.00,Wunderground v.1.15,2013-03-10 09:05:00,
2013-03-10 01:10:00,48.6,40.0,30.33,WNW,290,0.0,0.0,72,0.00,,,0.00,Wunderground v.1.15,2013-03-10 09:10:00,
2013-03-10 01:15:00,48.2,40.3,30.33,WNW,300,0.0,0.0,74,0.00,,,0.00,Wunderground v.1.15,2013-03-10 09:15:00,
2013-03-10 01:20:00,48.2,40.3,30.33,WNW,298,1.0,1.0,74,0.00,,,0.00,Wunderground v.1.15,2013-03-10 09:20:00,
2013-03-10 01:25:00,48.2,40.3,30.33,WNW,286,1.0,1.0,74,0.00,,,0.00,Wunderground v.1.15,2013-03-10 09:25:00,
2013-03-10 01:30:00,48.2,40.3,30.33,WNW,290,1.0,1.0,74,0.00,,,0.00,Wunderground v.1.15,2013-03-10 09:30:00,
2013-03-10 01:40:00,47.8,39.9,30.33,WNW,283,0.0,1.0,74,0.00,,,0.00,Wunderground v.1.15,2013-03-10 09:40:00,
2013-03-10 01:45:00,47.4,39.9,30.33,West,275,0.0,1.0,75,0.00,,,0.00,Wunderground v.1.15,2013-03-10 09:45:00,
2013-03-10 01:50:00,47.7,39.8,30.33,WNW,283,1.0,1.0,74,0.00,,,0.00,Wunderground v.1.15,2013-03-10 09:50:00,
2013-03-10 01:55:00,47.5,40.0,30.33,WNW,296,1.0,2.0,75,0.00,,,0.00,Wunderground v.1.15,2013-03-10 09:55:00,
2013-03-10 03:00:00,47.4,39.9,30.33,WNW,300,1.0,1.0,75,0.00,,,0.00,Wunderground v.1.15,2013-03-10 10:00:00,
2013-03-10 03:10:00,48.2,39.6,30.33,WNW,290,2.0,2.0,72,0.00,,,0.00,Wunderground v.1.15,2013-03-10 10:10:00,
2013-03-10 03:15:00,48.8,39.8,30.33,WNW,294,2.0,2.0,71,0.00,,,0.00,Wunderground v.1.15,2013-03-10 10:15:00,
2013-03-10 03:20:00,48.6,39.6,30.33,NW,308,1.0,1.0,71,0.00,,,0.00,Wunderground v.1.15,2013-03-10 10:20:00,
2013-03-10 03:25:00,48.6,39.3,30.32,WNW,290,1.0,1.0,70,0.00,,,0.00,Wunderground v.1.15,2013-03-10 10:25:00,
2013-03-10 03:35:00,47.9,39.3,30.32,WNW,301,1.0,2.0,72,0.00,,,0.00,Wunderground v.1.15,2013-03-10 10:35:00,
2013-03-10 03:40:00,47.7,39.1,30.32,NW,309,1.0,1.0,72,0.00,,,0.00,Wunderground v.1.15,2013-03-10 10:40:00,
2013-03-10 03:45:00,48.2,38.9,30.32,WNW,282,1.0,2.0,70,0.00,,,0.00,Wunderground v.1.15,2013-03-10 10:45:00,
2013-03-10 03:50:00,48.2,39.2,30.33,NW,311,1.0,1.0,71,0.00,,,0.00,Wunderground v.1.15,2013-03-10 10:50:00,
2013-03-10 04:00:00,48.3,38.6,30.33,North,351,0.0,0.0,69,0.00,,,0.00,Wunderground v.1.15,2013-03-10 11:00:00,
2013-03-10 04:05:00,48.2,38.9,30.33,North,355,0.0,0.0,70,0.00,,,0.00,Wunderground v.1.15,2013-03-10 11:05:00,
2013-03-10 04:10:00,47.7,39.1,30.32,NNW,337,0.0,1.0,72,0.00,,,0.00,Wunderground v.1.15,2013-03-10 11:10:00,
2013-03-10 04:15:00,47.2,38.6,30.32,NNW,337,0.0,1.0,72,0.00,,,0.00,Wunderground v.1.15,2013-03-10 11:15:00,
2013-03-10 04:25:00,46.3,38.5,30.32,NNW,337,0.0,0.0,74,0.00,,,0.00,Wunderground v.1.15,2013-03-10 11:25:00,
2013-03-10 04:30:00,46.0,38.2,30.32,NNW,331,0.0,1.0,74,0.00,,,0.00,Wunderground v.1.15,2013-03-10 11:30:00,
2013-03-10 04:35:00,45.7,38.2,30.32,NW,309,1.0,3.0,75,0.00,,,0.00,Wunderground v.1.15,2013-03-10 11:35:00,
2013-03-10 04:40:00,45.5,38.4,30.32,NW,309,2.0,2.0,76,0.00,,,0.00,Wunderground v.1.15,2013-03-10 11:40:00,
2013-03-10 04:45:00,46.1,38.3,30.32,West,271,2.0,2.0,74,0.00,,,0.00,Wunderground v.1.15,2013-03-10 11:45:00,
2013-03-10 04:50:00,47.0,38.4,30.32,NW,308,1.0,1.0,72,0.00,,,0.00,Wunderground v.1.15,2013-03-10 11:50:00,
2013-03-10 04:55:00,47.2,38.6,30.32,NW,315,0.0,1.0,72,0.00,,,0.00,Wunderground v.1.15,2013-03-10 11:55:00,
2013-03-10 05:05:00,46.7,38.1,30.32,NW,308,0.0,1.0,72,0.00,,,0.00,Wunderground v.1.15,2013-03-10 12:05:00,
2013-03-10 05:10:00,47.7,38.4,30.32,NW,315,1.0,1.0,70,0.00,,,0.00,Wunderground v.1.15,2013-03-10 12:10:00,
2013-03-10 05:15:00,47.7,39.1,30.33,NW,308,1.0,1.0,72,0.00,,,0.00,Wunderground v.1.15,2013-03-10 12:15:00,
2013-03-10 05:25:00,46.3,38.1,30.33,NW,308,0.0,0.0,73,0.00,,,0.00,Wunderground v.1.15,2013-03-10 12:25:00,
2013-03-10 05:30:00,46.0,38.2,30.33,NW,308,0.0,0.0,74,0.00,,,0.00,Wunderground v.1.15,2013-03-10 12:30:00,
2013-03-10 05:35:00,46.1,37.9,30.33,NW,308,0.0,0.0,73,0.00,,,0.00,Wunderground v.1.15,2013-03-10 12:35:00,
2013-03-10 05:45:00,45.3,37.8,30.33,NW,309,0.0,0.0,75,0.00,,,0.00,Wunderground v.1.15,2013-03-10 12:45:00,
2013-03-10 05:50:00,45.2,37.7,30.33,NW,309,0.0,0.0,75,0.00,,,0.00,Wunderground v.1.15,2013-03-10 12:50:00,
2013-03-10 05:55:00,45.4,37.9,30.33,NW,309,0.0,0.0,75,0.00,,,0.00,Wunderground v.1.15,2013-03-10 12:55:00,
2013-03-10 06:05:00,45.3,38.2,30.33,NW,306,1.0,1.0,76,0.00,,,0.00,Wunderground v.1.15,2013-03-10 13:05:00,
2013-03-10 06:10:00,45.4,37.6,30.33,NW,308,1.0,1.0,74,0.00,,,0.00,Wunderground v.1.15,2013-03-10 13:10:00,
2013-03-10 06:15:00,46.2,37.3,30.33,NW,317,1.0,1.0,71,0.00,,,0.00,Wunderground v.1.15,2013-03-10 13:15:00,
2013-03-10 06:25:00,46.4,37.5,30.33,NW,309,1.0,1.0,71,0.00,,,0.00,Wunderground v.1.15,2013-03-10 13:25:00,
2013-03-10 06:30:00,46.6,37.0,30.33,NW,309,0.0,0.0,69,0.00,,,0.00,Wunderground v.1.15,2013-03-10 13:30:00,
2013-03-10 06:35:00,46.6,37.3,30.33,NW,309,0.0,0.0,70,0.00,,,0.00,Wunderground v.1.15,2013-03-10 13:35:00,
2013-03-10 06:45:00,46.0,37.1,30.34,NW,309,0.0,0.0,71,0.00,,,0.00,Wunderground v.1.15,2013-03-10 13:45:00,
2013-03-10 06:50:00,45.8,37.3,30.34,West,259,0.0,1.0,72,0.00,,,0.00,Wunderground v.1.15,2013-03-10 13:50:00,
2013-03-10 06:55:00,45.8,37.3,30.33,NW,304,0.0,1.0,72,0.00,,,0.00,Wunderground v.1.15,2013-03-10 13:55:00,
2013-03-10 07:00:00,45.5,37.7,30.33,NW,304,0.0,0.0,74,0.00,,,0.00,Wunderground v.1.15,2013-03-10 14:00:00,
2013-03-10 07:10:00,44.8,37.4,30.34,NW,304,0.0,0.0,75,0.00,,,0.00,Wunderground v.1.15,2013-03-10 14:10:00,
2013-03-10 07:20:00,44.2,36.8,30.34,NW,304,0.0,0.0,75,0.00,,,0.00,Wunderground v.1.15,2013-03-10 14:20:00,
2013-03-10 07:25:00,44.1,37.0,30.34,NW,304,0.0,0.0,76,0.00,,,0.00,Wunderground v.1.15,2013-03-10 14:25:00,
2013-03-10 07:30:00,44.3,36.9,30.34,NW,304,0.0,0.0,75,0.00,,,0.00,Wunderground v.1.15,2013-03-10 14:30:00,
2013-03-10 07:35:00,44.7,36.9,30.34,NW,304,0.0,1.0,74,0.00,,,0.00,Wunderground v.1.15,2013-03-10 14:35:00,
2013-03-10 07:40:00,44.8,36.7,30.34,NW,304,0.0,0.0,73,0.00,,,0.00,Wunderground v.1.15,2013-03-10 14:40:00,
2013-03-10 07:45:00,44.9,36.8,30.34,NW,304,0.0,0.0,73,0.00,,,0.00,Wunderground v.1.15,2013-03-10 14:45:00,
2013-03-10 07:55:00,45.3,37.2,30.35,NW,304,0.0,0.0,73,0.00,,,0.00,Wunderground v.1.15,2013-03-10 14:55:00,
2013-03-10 08:00:00,45.4,37.6,30.35,NW,304,0.0,0.0,74,0.00,,,0.00,Wunderground v.1.15,2013-03-10 15:00:00,
2013-03-10 08:05:00,45.4,37.9,30.35,NW,304,0.0,0.0,75,0.00,,,0.00,Wunderground v.1.15,2013-03-10 15:05:00,
2013-03-10 08:10:00,45.6,38.1,30.35,NW,304,0.0,0.0,75,0.00,,,0.00,Wunderground v.1.15,2013-03-10 15:10:00,
2013-03-10 08:15:00,45.8,38.0,30.36,NW,304,0.0,0.0,74,0.00,,,0.00,Wunderground v.1.15,2013-03-10 15:15:00,
2013-03-10 08:20:00,46.1,38.6,30.36,WNW,299,0.0,0.0,75,0.00,,,0.00,Wunderground v.1.15,2013-03-10 15:20:00,
2013-03-10 08:25:00,46.1,39.0,30.36,WNW,299,0.0,0.0,76,0.00,,,0.00,Wunderground v.1.15,2013-03-10 15:25:00,
2013-03-10 08:35:00,46.9,39.4,30.36,WNW,299,0.0,0.0,75,0.00,,,0.00,Wunderground v.1.15,2013-03-10 15:35:00,
2013-03-10 08:40:00,48.3,40.0,30.36,WNW,299,0.0,0.0,73,0.00,,,0.00,Wunderground v.1.15,2013-03-10 15:40:00,
2013-03-10 08:45:00,49.0,38.9,30.36,WNW,299,0.0,0.0,68,0.00,,,0.00,Wunderground v.1.15,2013-03-10 15:45:00,
2013-03-10 08:55:00,49.8,38.9,30.36,ESE,119,1.0,1.0,66,0.00,,,0.00,Wunderground v.1.15,2013-03-10 15:55:00,
2013-03-10 09:00:00,50.1,38.4,30.37,ESE,119,1.0,1.0,64,0.00,,,0.00,Wunderground v.1.15,2013-03-10 16:00:00,
2013-03-10 09:05:00,49.7,38.4,30.37,SE,146,1.0,1.0,65,0.00,,,0.00,Wunderground v.1.15,2013-03-10 16:05:00,
2013-03-10 09:10:00,49.8,37.7,30.37,SSE,150,1.0,1.0,63,0.00,,,0.00,Wunderground v.1.15,2013-03-10 16:10:00,
2013-03-10 09:15:00,50.2,38.5,30.37,SE,127,1.0,1.0,64,0.00,,,0.00,Wunderground v.1.15,2013-03-10 16:15:00,
2013-03-10 09:20:00,50.6,37.2,30.37,SE,136,1.0,2.0,60,0.00,,,0.00,Wunderground v.1.15,2013-03-10 16:20:00,
2013-03-10 09:30:00,51.7,38.7,30.37,ESE,113,1.0,1.0,61,0.00,,,0.00,Wunderground v.1.15,2013-03-10 16:30:00,
2013-03-10 09:35:00,52.3,38.4,30.37,ESE,113,1.0,1.0,59,0.00,,,0.00,Wunderground v.1.15,2013-03-10 16:35:00,
2013-03-10 09:40:00,52.6,37.8,30.37,ESE,114,1.0,1.0,57,0.00,,,0.00,Wunderground v.1.15,2013-03-10 16:40:00,
2013-03-10 09:45:00,52.7,37.9,30.37,East,86,1.0,2.0,57,0.00,,,0.00,Wunderground v.1.15,2013-03-10 16:45:00,
2013-03-10 09:50:00,52.8,38.0,30.37,SE,146,2.0,2.0,57,0.00,,,0.00,Wunderground v.1.15,2013-03-10 16:50:00,
2013-03-10 09:55:00,53.4,38.5,30.37,East,86,2.0,2.0,57,0.00,,,0.00,Wunderground v.1.15,2013-03-10 16:55:00,
2013-03-10 10:00:00,53.6,39.2,30.37,East,94,1.0,1.0,58,0.00,,,0.00,Wunderground v.1.15,2013-03-10 17:00:00,
2013-03-10 10:10:00,54.3,38.5,30.37,South,182,2.0,2.0,55,0.00,,,0.00,Wunderground v.1.15,2013-03-10 17:10:00,
2013-03-10 10:15:00,54.3,38.5,30.37,SE,138,2.0,2.0,55,0.00,,,0.00,Wunderground v.1.15,2013-03-10 17:15:00,
2013-03-10 10:20:00,54.1,37.3,30.37,SE,143,2.0,3.0,53,0.00,,,0.00,Wunderground v.1.15,2013-03-10 17:20:00,
2013-03-10 10:25:00,54.0,38.2,30.37,East,96,3.0,3.0,55,0.00,,,0.00,Wunderground v.1.15,2013-03-10 17:25:00,
2013-03-10 10:30:00,54.3,37.5,30.37,SE,137,2.0,2.0,53,0.00,,,0.00,Wunderground v.1.15,2013-03-10 17:30:00,
2013-03-10 10:40:00,54.3,37.5,30.36,SE,136,3.0,5.0,53,0.00,,,0.00,Wunderground v.1.15,2013-03-10 17:40:00,
2013-03-10 10:45:00,54.2,36.9,30.36,SSE,167,4.0,5.0,52,0.00,,,0.00,Wunderground v.1.15,2013-03-10 17:45:00,
2013-03-10 10:50:00,54.8,37.5,30.36,East,91,4.0,4.0,52,0.00,,,0.00,Wunderground v.1.15,2013-03-10 17:50:00,
2013-03-10 11:00:00,55.4,36.5,30.36,SE,137,4.0,4.0,49,0.00,,,0.00,Wunderground v.1.15,2013-03-10 18:00:00,
2013-03-10 11:05:00,55.3,35.9,30.36,SE,136,3.0,4.0,48,0.00,,,0.00,Wunderground v.1.15,2013-03-10 18:05:00,
2013-03-10 11:15:00,56.0,37.1,30.36,SE,146,3.0,7.0,49,0.00,,,0.00,Wunderground v.1.15,2013-03-10 18:15:00,
2013-03-10 11:20:00,55.6,37.2,30.36,SSE,150,3.0,4.0,50,0.00,,,0.00,Wunderground v.1.15,2013-03-10 18:20:00,
2013-03-10 11:30:00,56.8,37.3,30.36,SE,136,3.0,3.0,48,0.00,,,0.00,Wunderground v.1.15,2013-03-10 18:30:00,
2013-03-10 11:35:00,57.5,35.2,30.36,SSE,148,3.0,6.0,43,0.00,,,0.00,Wunderground v.1.15,2013-03-10 18:35:00,
2013-03-10 11:40:00,57.4,36.2,30.36,ESE,103,3.0,3.0,45,0.00,,,0.00,Wunderground v.1.15,2013-03-10 18:40:00,
2013-03-10 11:45:00,57.6,35.2,30.36,East,86,1.0,3.0,43,0.00,,,0.00,Wunderground v.1.15,2013-03-10 18:45:00,
2013-03-10 11:55:00,58.8,34.5,30.36,East,84,2.0,5.0,40,0.00,,,0.00,Wunderground v.1.15,2013-03-10 18:55:00,
2013-03-10 12:00:00,59.3,33.7,30.35,ESE,123,2.0,2.0,38,0.00,,,0.00,Wunderground v.1.15,2013-03-10 19:00:00,
2013-03-10 12:05:00,60.0,35.0,30.35,SE,142,2.0,2.0,39,0.00,,,0.00,Wunderground v.1.15,2013-03-10 19:05:00,
2013-03-10 12:10:00,59.9,34.9,30.35,SSE,162,3.0,3.0,39,0.00,,,0.00,Wunderground v.1.15,2013-03-10 19:10:00,
2013-03-10 12:15:00,60.7,34.3,30.35,SSE,152,3.0,3.0,37,0.00,,,0.00,Wunderground v.1.15,2013-03-10 19:15:00,
2013-03-10 12:20:00,60.6,33.5,30.35,SSE,158,3.0,4.0,36,0.00,,,0.00,Wunderground v.1.15,2013-03-10 19:20:00,
2013-03-10 12:25:00,60.8,34.3,30.35,SE,133,4.0,4.0,37,0.00,,,0.00,Wunderground v.1.15,2013-03-10 19:25:00,
2013-03-10 12:30:00,60.9,33.0,30.34,ESE,103,4.0,4.0,35,0.00,,,0.00,Wunderground v.1.15,2013-03-10 19:30:00,
2013-03-10 12:40:00,60.7,34.9,30.34,South,178,3.0,6.0,38,0.00,,,0.00,Wunderground v.1.15,2013-03-10 19:40:00,
2013-03-10 12:45:00,60.9,34.4,30.34,SE,141,4.0,6.0,37,0.00,,,0.00,Wunderground v.1.15,2013-03-10 19:45:00,
2013-03-10 12:50:00,60.8,35.0,30.34,SE,138,4.0,5.0,38,0.00,,,0.00,Wunderground v.1.15,2013-03-10 19:50:00,
2013-03-10 13:00:00,61.6,35.7,30.33,ESE,102,3.0,3.0,38,0.00,,,0.00,Wunderground v.1.15,2013-03-10 20:00:00,
2013-03-10 13:05:00,61.7,33.7,30.33,SSE,153,3.0,3.0,35,0.00,,,0.00,Wunderground v.1.15,2013-03-10 20:05:00,
2013-03-10 13:10:00,61.5,34.3,30.33,SSE,150,2.0,3.0,36,0.00,,,0.00,Wunderground v.1.15,2013-03-10 20:10:00,
2013-03-10 13:15:00,61.4,34.2,30.33,SSE,163,2.0,3.0,36,0.00,,,0.00,Wunderground v.1.15,2013-03-10 20:15:00,
2013-03-10 13:25:00,63.2,34.3,30.33,SSE,155,1.0,1.0,34,0.00,,,0.00,Wunderground v.1.15,2013-03-10 20:25:00,
2013-03-10 13:30:00,63.8,34.1,30.33,SSE,153,1.0,1.0,33,0.00,,,0.00,Wunderground v.1.15,2013-03-10 20:30:00,
2013-03-10 13:35:00,63.8,34.1,30.32,SSE,148,2.0,3.0,33,0.00,,,0.00,Wunderground v.1.15,2013-03-10 20:35:00,
2013-03-10 13:40:00,63.9,33.4,30.32,SSE,148,2.0,2.0,32,0.00,,,0.00,Wunderground v.1.15,2013-03-10 20:40:00,
2013-03-10 13:45:00,64.4,35.4,30.32,SSE,153,1.0,2.0,34,0.00,,,0.00,Wunderground v.1.15,2013-03-10 20:45:00,
2013-03-10 13:50:00,65.0,35.2,30.31,East,84,2.0,2.0,33,0.00,,,0.00,Wunderground v.1.15,2013-03-10 20:50:00,
2013-03-10 13:55:00,64.7,34.9,30.31,SE,126,4.0,5.0,33,0.00,,,0.00,Wunderground v.1.15,2013-03-10 20:55:00,
2013-03-10 14:00:00,64.5,34.0,30.31,SSE,168,3.0,4.0,32,0.00,,,0.00,Wunderground v.1.15,2013-03-10 21:00:00,
2013-03-10 14:10:00,65.2,35.4,30.30,ESE,102,3.0,3.0,33,0.00,,,0.00,Wunderground v.1.15,2013-03-10 21:10:00,
2013-03-10 14:15:00,65.5,34.0,30.30,SSE,151,4.0,4.0,31,0.00,,,0.00,Wunderground v.1.15,2013-03-10 21:15:00,
2013-03-10 14:20:00,65.4,34.0,30.30,SE,137,4.0,4.0,31,0.00,,,0.00,Wunderground v.1.15,2013-03-10 21:20:00,
2013-03-10 14:25:00,66.0,34.5,30.30,SE,146,3.0,4.0,31,0.00,,,0.00,Wunderground v.1.15,2013-03-10 21:25:00,
2013-03-10 14:30:00,66.5,34.9,30.30,ESE,113,2.0,2.0,31,0.00,,,0.00,Wunderground v.1.15,2013-03-10 21:30:00,
2013-03-10 14:35:00,66.7,33.4,30.30,SSE,152,2.0,2.0,29,0.00,,,0.00,Wunderground v.1.15,2013-03-10 21:35:00,
2013-03-10 14:40:00,66.5,34.9,30.30,SSE,154,2.0,2.0,31,0.00,,,0.00,Wunderground v.1.15,2013-03-10 21:40:00,
2013-03-10 14:50:00,67.4,36.5,30.29,SE,132,2.0,3.0,32,0.00,,,0.00,Wunderground v.1.15,2013-03-10 21:50:00,
2013-03-10 14:55:00,67.3,33.9,30.30,SE,132,1.0,3.0,29,0.00,,,0.00,Wunderground v.1.15,2013-03-10 21:55:00,
2013-03-10 15:00:00,67.0,35.3,30.29,SE,135,2.0,2.0,31,0.00,,,0.00,Wunderground v.1.15,2013-03-10 22:00:00,
2013-03-10 15:05:00,67.4,36.5,30.29,SE,125,1.0,2.0,32,0.00,,,0.00,Wunderground v.1.15,2013-03-10 22:05:00,
2013-03-10 15:10:00,67.9,36.1,30.30,SE,125,1.0,1.0,31,0.00,,,0.00,Wunderground v.1.15,2013-03-10 22:10:00,
2013-03-10 15:20:00,68.2,38.0,30.29,SSE,163,1.0,1.0,33,0.00,,,0.00,Wunderground v.1.15,2013-03-10 22:20:00,
2013-03-10 15:30:00,68.1,37.9,30.30,WNW,302,2.0,2.0,33,0.00,,,0.00,Wunderground v.1.15,2013-03-10 22:30:00,
2013-03-10 15:35:00,68.2,37.2,30.30,WNW,288,2.0,2.0,32,0.00,,,0.00,Wunderground v.1.15,2013-03-10 22:35:00,
2013-03-10 15:40:00,68.2,40.2,30.29,NE,53,1.0,1.0,36,0.00,,,0.00,Wunderground v.1.15,2013-03-10 22:40:00,
2013-03-10 15:50:00,67.8,39.9,30.29,SE,138,2.0,2.0,36,0.00,,,0.00,Wunderground v.1.15,2013-03-10 22:50:00,
2013-03-10 16:00:00,68.1,42.2,30.29,West,276,2.0,2.0,39,0.00,,,0.00,Wunderground v.1.15,2013-03-10 23:00:00,
2013-03-10 16:05:00,68.6,43.3,30.29,East,100,1.0,2.0,40,0.00,,,0.00,Wunderground v.1.15,2013-03-10 23:05:00,
2013-03-10 16:10:00,68.6,41.3,30.29,East,97,1.0,1.0,37,0.00,,,0.00,Wunderground v.1.15,2013-03-10 23:10:00,
2013-03-10 16:15:00,68.4,41.1,30.29,SE,146,1.0,1.0,37,0.00,,,0.00,Wunderground v.1.15,2013-03-10 23:15:00,
2013-03-10 16:25:00,68.0,41.4,30.29,NNW,340,1.0,2.0,38,0.00,,,0.00,Wunderground v.1.15,2013-03-10 23:25:00,
2013-03-10 16:30:00,68.0,41.4,30.29,West,281,1.0,1.0,38,0.00,,,0.00,Wunderground v.1.15,2013-03-10 23:30:00,
2013-03-10 16:35:00,68.4,41.1,30.29,NW,308,1.0,4.0,37,0.00,,,0.00,Wunderground v.1.15,2013-03-10 23:35:00,
2013-03-10 16:40:00,67.7,41.2,30.28,West,264,2.0,4.0,38,0.00,,,0.00,Wunderground v.1.15,2013-03-10 23:40:00,
2013-03-10 16:50:00,67.8,39.9,30.28,NNW,339,1.0,1.0,36,0.00,,,0.00,Wunderground v.1.15,2013-03-10 23:50:00,
2013-03-10 16:55:00,68.1,39.4,30.28,WNW,288,1.0,1.0,35,0.00,,,0.00,Wunderground v.1.15,2013-03-10 23:55:00,
2013-03-10 17:00:00,67.9,39.2,30.28,NW,317,2.0,3.0,35,0.00,,,0.00,Wunderground v.1.15,2013-03-11 00:00:00,
2013-03-10 17:10:00,67.5,38.9,30.28,ESE,122,1.0,1.0,35,0.00,,,0.00,Wunderground v.1.15,2013-03-11 00:10:00,
2013-03-10 17:15:00,67.8,39.9,30.28,WNW,294,1.0,1.0,36,0.00,,,0.00,Wunderground v.1.15,2013-03-11 00:15:00,
2013-03-10 17:20:00,68.1,40.8,30.28,SE,138,1.0,1.0,37,0.00,,,0.00,Wunderground v.1.15,2013-03-11 00:20:00,
2013-03-10 17:30:00,67.7,40.5,30.27,WNW,288,1.0,2.0,37,0.00,,,0.00,Wunderground v.1.15,2013-03-11 00:30:00,
2013-03-10 17:35:00,66.8,41.0,30.27,NNW,342,2.0,2.0,39,0.00,,,0.00,Wunderground v.1.15,2013-03-11 00:35:00,
2013-03-10 17:40:00,66.7,40.9,30.27,NW,323,2.0,2.0,39,0.00,,,0.00,Wunderground v.1.15,2013-03-11 00:40:00,
2013-03-10 17:50:00,67.0,42.5,30.27,West,269,0.0,1.0,41,0.00,,,0.00,Wunderground v.1.15,2013-03-11 00:50:00,
2013-03-10 17:55:00,66.7,42.2,30.27,West,273,1.0,1.0,41,0.00,,,0.00,Wunderground v.1.15,2013-03-11 00:55:00,
2013-03-10 18:00:00,66.6,42.8,30.27,West,261,1.0,1.0,42,0.00,,,0.00,Wunderground v.1.15,2013-03-11 01:00:00,
2013-03-10 18:10:00,65.9,41.5,30.27,ESE,123,0.0,0.0,41,0.00,,,0.00,Wunderground v.1.15,2013-03-11 01:10:00,
2013-03-10 18:20:00,64.2,40.0,30.27,East,97,0.0,0.0,41,0.00,,,0.00,Wunderground v.1.15,2013-03-11 01:20:00,
2013-03-10 18:25:00,63.0,38.9,30.27,East,97,0.0,1.0,41,0.00,,,0.00,Wunderground v.1.15,2013-03-11 01:25:00,
2013-03-10 18:30:00,62.0,38.6,30.27,East,96,0.0,0.0,42,0.00,,,0.00,Wunderground v.1.15,2013-03-11 01:30:00,
2013-03-10 18:35:00,61.1,38.4,30.27,East,96,1.0,1.0,43,0.00,,,0.00,Wunderground v.1.15,2013-03-11 01:35:00,
2013-03-10 18:45:00,60.0,38.0,30.27,East,92,0.0,0.0,44,0.00,,,0.00,Wunderground v.1.15,2013-03-11 01:45:00,
2013-03-10 18:50:00,59.5,37.6,30.27,East,91,0.0,1.0,44,0.00,,,0.00,Wunderground v.1.15,2013-03-11 01:50:00,
2013-03-10 18:55:00,59.0,37.1,30.27,East,86,0.0,1.0,44,0.00,,,0.00,Wunderground v.1.15,2013-03-11 01:55:00,
2013-03-10 19:00:00,58.5,36.6,30.27,NW,317,0.0,1.0,44,0.00,,,0.00,Wunderground v.1.15,2013-03-11 02:00:00,
2013-03-10 19:05:00,58.1,36.3,30.27,NW,321,1.0,1.0,44,0.00,,,0.00,Wunderground v.1.15,2013-03-11 02:05:00,
2013-03-10 19:15:00,57.4,35.1,30.28,NNW,327,1.0,1.0,43,0.00,,,0.00,Wunderground v.1.15,2013-03-11 02:15:00,
2013-03-10 19:20:00,57.1,34.8,30.28,NNW,329,1.0,1.0,43,0.00,,,0.00,Wunderground v.1.15,2013-03-11 02:20:00,
2013-03-10 19:25:00,56.6,35.5,30.28,NW,321,1.0,1.0,45,0.00,,,0.00,Wunderground v.1.15,2013-03-11 02:25:00,
2013-03-10 19:35:00,55.3,35.4,30.28,NW,321,1.0,1.0,47,0.00,,,0.00,Wunderground v.1.15,2013-03-11 02:35:00,
2013-03-10 19:45:00,54.5,36.2,30.28,NW,321,0.0,0.0,50,0.00,,,0.00,Wunderground v.1.15,2013-03-11 02:45:00,
2013-03-10 19:50:00,54.2,36.5,30.29,NW,321,0.0,0.0,51,0.00,,,0.00,Wunderground v.1.15,2013-03-11 02:50:00,
2013-03-10 19:55:00,54.1,35.9,30.29,NW,317,0.0,1.0,50,0.00,,,0.00,Wunderground v.1.15,2013-03-11 02:55:00,
2013-03-10 20:05:00,53.4,36.7,30.29,NW,312,1.0,2.0,53,0.00,,,0.00,Wunderground v.1.15,2013-03-11 03:05:00,
2013-03-10 20:10:00,53.1,37.8,30.29,NW,312,1.0,1.0,56,0.00,,,0.00,Wunderground v.1.15,2013-03-11 03:10:00,
2013-03-10 20:15:00,52.8,37.5,30.29,NW,310,1.0,1.0,56,0.00,,,0.00,Wunderground v.1.15,2013-03-11 03:15:00,
2013-03-10 20:25:00,52.3,37.5,30.29,NW,318,1.0,2.0,57,0.00,,,0.00,Wunderground v.1.15,2013-03-11 03:25:00,
2013-03-10 20:30:00,52.2,37.0,30.29,NW,322,1.0,1.0,56,0.00,,,0.00,Wunderground v.1.15,2013-03-11 03:30:00,
2013-03-10 20:35:00,52.0,36.3,30.29,NNW,327,1.0,1.0,55,0.00,,,0.00,Wunderground v.1.15,2013-03-11 03:35:00,
2013-03-10 20:40:00,52.1,36.4,30.29,NNW,327,1.0,1.0,55,0.00,,,0.00,Wunderground v.1.15,2013-03-11 03:40:00,
2013-03-10 20:45:00,52.2,36.0,30.29,NNW,327,0.0,1.0,54,0.00,,,0.00,Wunderground v.1.15,2013-03-11 03:45:00,
2013-03-10 20:50:00,52.2,35.6,30.29,NNW,327,0.0,0.0,53,0.00,,,0.00,Wunderground v.1.15,2013-03-11 03:50:00,
2013-03-10 21:00:00,52.1,35.0,30.28,NNW,327,0.0,0.0,52,0.00,,,0.00,Wunderground v.1.15,2013-03-11 04:00:00,
2013-03-10 21:05:00,52.0,34.9,30.28,NNW,327,0.0,0.0,52,0.00,,,0.00,Wunderground v.1.15,2013-03-11 04:05:00,
2013-03-10 21:15:00,51.6,35.0,30.28,NNW,327,0.0,0.0,53,0.00,,,0.00,Wunderground v.1.15,2013-03-11 04:15:00,
2013-03-10 21:20:00,51.4,34.3,30.28,NNW,327,0.0,0.0,52,0.00,,,0.00,Wunderground v.1.15,2013-03-11 04:20:00,
2013-03-10 21:25:00,51.1,34.5,30.28,NNW,327,0.0,0.0,53,0.00,,,0.00,Wunderground v.1.15,2013-03-11 04:25:00,
2013-03-10 21:30:00,51.1,35.9,30.28,NNW,327,0.0,0.0,56,0.00,,,0.00,Wunderground v.1.15,2013-03-11 04:30:00,
2013-03-10 21:35:00,51.2,36.0,30.28,NNW,327,0.0,0.0,56,0.00,,,0.00,Wunderground v.1.15,2013-03-11 04:35:00,
2013-03-10 21:45:00,52.5,34.9,30.29,NNW,329,0.0,2.0,51,0.00,,,0.00,Wunderground v.1.15,2013-03-11 04:45:00,
2013-03-10 21:50:00,53.4,35.2,30.29,NNW,329,1.0,1.0,50,0.00,,,0.00,Wunderground v.1.15,2013-03-11 04:50:00,
2013-03-10 22:00:00,53.7,35.5,30.28,NNW,331,1.0,2.0,50,0.00,,,0.00,Wunderground v.1.15,2013-03-11 05:00:00,
2013-03-10 22:05:00,53.2,35.5,30.28,NNW,330,2.0,2.0,51,0.00,,,0.00,Wunderground v.1.15,2013-03-11 05:05:00,
2013-03-10 22:10:00,52.4,35.3,30.28,NW,321,1.0,1.0,52,0.00,,,0.00,Wunderground v.1.15,2013-03-11 05:10:00,
2013-03-10 22:20:00,52.8,34.2,30.28,NNW,328,2.0,2.0,49,0.00,,,0.00,Wunderground v.1.15,2013-03-11 05:20:00,
2013-03-10 22:25:00,52.9,34.2,30.28,NNW,328,1.0,2.0,49,0.00,,,0.00,Wunderground v.1.15,2013-03-11 05:25:00,
2013-03-10 22:30:00,52.2,33.6,30.28,NNW,328,0.0,0.0,49,0.00,,,0.00,Wunderground v.1.15,2013-03-11 05:30:00,
2013-03-10 22:35:00,51.8,34.2,30.29,NNW,328,0.0,0.0,51,0.00,,,0.00,Wunderground v.1.15,2013-03-11 05:35:00,
2013-03-10 22:45:00,51.1,33.6,30.28,NNW,328,0.0,0.0,51,0.00,,,0.00,Wunderground v.1.15,2013-03-11 05:45:00,
2013-03-10 22:50:00,50.8,33.3,30.28,NNW,328,0.0,0.0,51,0.00,,,0.00,Wunderground v.1.15,2013-03-11 05:50:00,
2013-03-10 22:55:00,50.6,33.1,30.28,NNW,328,0.0,0.0,51,0.00,,,0.00,Wunderground v.1.15,2013-03-11 05:55:00,
2013-03-10 23:05:00,50.5,31.5,30.28,NNW,328,0.0,0.0,48,0.00,,,0.00,Wunderground v.1.15,2013-03-11 06:05:00,
2013-03-10 23:10:00,50.6,31.1,30.29,NNW,328,0.0,0.0,47,0.00,,,0.00,Wunderground v.1.15,2013-03-11 06:10:00,
2013-03-10 23:15:00,50.8,31.8,30.29,NNW,328,0.0,0.0,48,0.00,,,0.00,Wunderground v.1.15,2013-03-11 06:15:00,
2013-03-10 23:20:00,50.7,33.2,30.28,NNW,328,0.0,0.0,51,0.00,,,0.00,Wunderground v.1.15,2013-03-11 06:20:00,
2013-03-10 23:30:00,50.8,30.7,30.28,NNW,328,0.0,2.0,46,0.00,,,0.00,Wunderground v.1.15,2013-03-11 06:30:00,
2013-03-10 23:35:00,51.6,30.9,30.28,NNW,328,0.0,2.0,45,0.00,,,0.00,Wunderground v.1.15,2013-03-11 06:35:00,
2013-03-10 23:40:00,51.6,30.9,30.28,NNW,328,0.0,1.0,45,0.00,,,0.00,Wunderground v.1.15,2013-03-11 06:40:00,
2013-03-10 23:45:00,51.5,30.8,30.28,NNW,328,0.0,1.0,45,0.00,,,0.00,Wunderground v.1.15,2013-03-11 06:45:00,
2013-03-10 23:50:00,51.5,30.3,30.28,NNW,328,0.0,0.0,44,0.00,,,0.00,Wunderground v.1.15,2013-03-11 06:50:00,